EW3197 Weather Reports


Display with metric or nautical units.
time (UTC)temp
F
wind
direction
speed
MPH
gust
MPH
rain 1hr
in
rain 24hr
in
rain mn
in
humidity
%
barometer
mb
20260507172204 56 317 4.0 12.0 0.00 0.21 0.00 46 1009.4
20260507170704 57 267 3.0 14.0 0.00 0.22 0.00 46 1009.5
20260507170204 58 301 2.0 12.0 0.00 0.23 0.00 48 1009.5
20260507165704 56 10 4.0 12.0 0.00 0.24 0.00 47 1009.5
20260507165204 57 245 3.0 10.0 0.00 0.25 0.00 46 1009.5
20260507164704 57 225 3.0 6.0 0.00 0.26 0.00 46 1009.7
20260507164204 57 306 3.0 10.0 0.00 0.27 0.00 48 1009.6
20260507163703 56 221 3.0 12.0 0.00 0.27 0.00 49 1009.8
20260507162704 55 119 3.0 8.0 0.00 0.29 0.00 50 1009.9
20260507162204 55 256 5.0 9.0 0.00 0.29 0.00 48 1010.0
20260507161704 55 284 5.0 12.0 0.00 0.30 0.00 48 1010.1
20260507161204 55 225 3.0 8.0 0.00 0.30 0.00 48 1010.2
20260507160704 55 276 3.0 13.0 0.00 0.30 0.00 47 1010.2
20260507160204 54 300 6.0 13.0 0.00 0.31 0.00 48 1010.4
20260507155204 54 265 5.0 15.0 0.00 0.31 0.00 48 1010.5
20260507154704 54 296 5.0 13.0 0.00 0.31 0.00 46 1010.4
20260507154204 54 349 3.0 10.0 0.00 0.31 0.00 48 1010.5
20260507153704 54 330 2.0 9.0 0.00 0.31 0.00 51 1010.5
20260507153203 54 232 5.0 14.0 0.00 0.31 0.00 46 1010.6
20260507152704 54 209 3.0 8.0 0.00 0.31 0.00 50 1010.5
20260507152204 53 246 4.0 12.0 0.00 0.31 0.00 50 1010.7
20260507151204 53 314 5.0 10.0 0.00 0.31 0.00 49 1010.7
20260507150704 54 266 3.0 10.0 0.00 0.31 0.00 50 1010.7
20260507150203 53 307 8.0 13.0 0.00 0.31 0.00 48 1010.6
20260507145705 53 329 4.0 12.0 0.00 0.31 0.00 49 1010.5
20260507145203 53 277 3.0 6.0 0.00 0.31 0.00 50 1010.5
20260507144203 52 320 4.0 13.0 0.00 0.31 0.00 50 1010.6
20260507143703 52 329 5.0 15.0 0.00 0.31 0.00 50 1010.6
20260507143204 52 310 6.0 12.0 0.00 0.31 0.00 51 1010.6
20260507142704 52 233 2.0 7.0 0.00 0.31 0.00 53 1010.6
20260507142204 51 236 4.0 12.0 0.00 0.31 0.00 49 1010.7
20260507141704 51 260 3.0 12.0 0.00 0.31 0.00 51 1010.7
20260507141203 51 226 2.0 9.0 0.00 0.31 0.00 52 1010.8
20260507140704 51 238 3.0 13.0 0.00 0.31 0.00 51 1010.8
20260507135704 51 270 4.0 13.0 0.00 0.31 0.00 53 1010.8
20260507135204 51 296 4.0 13.0 0.00 0.31 0.00 53 1010.7
20260507134703 50 235 3.0 12.0 0.00 0.31 0.00 55 1010.7
20260507133704 50 294 3.0 12.0 0.00 0.31 0.00 56 1010.7
20260507133204 49 321 4.0 8.0 0.00 0.31 0.00 55 1010.6
20260507132704 49 318 4.0 12.0 0.00 0.31 0.00 59 1010.7
20260507131704 49 304 3.0 8.0 0.00 0.31 0.00 59 1010.9
20260507131204 49 281 3.0 9.0 0.00 0.31 0.00 58 1010.8
20260507130704 49 311 3.0 8.0 0.00 0.31 0.00 61 1010.7
20260507130204 49 311 2.0 13.0 0.00 0.31 0.00 60 1010.6
20260507125703 48 308 3.0 12.0 0.00 0.31 0.00 61 1010.6
20260507125204 48 281 2.0 3.0 0.00 0.31 0.00 62 1010.7
20260507124204 48 305 3.0 10.0 0.00 0.31 0.00 62 1010.6
20260507123704 48 255 4.0 9.0 0.00 0.31 0.00 63 1010.6
20260507123204 47 217 3.0 8.0 0.00 0.31 0.00 64 1010.6
20260507122705 47 271 3.0 7.0 0.00 0.31 0.00 65 1010.5
20260507122203 47 305 3.0 10.0 0.00 0.31 0.00 65 1010.5
20260507121704 47 276 2.0 8.0 0.00 0.31 0.00 68 1010.6
20260507121203 46 256 6.0 14.0 0.00 0.31 0.00 68 1010.6
20260507120704 46 249 2.0 8.0 0.00 0.31 0.00 70 1010.7
20260507120203 46 297 5.0 13.0 0.00 0.31 0.00 71 1010.7
20260507115704 46 147 2.0 8.0 0.00 0.31 0.00 71 1010.6
20260507115204 46 241 3.0 7.0 0.00 0.31 0.00 72 1010.5
20260507114704 46 277 5.0 12.0 0.00 0.31 0.00 71 1010.5
20260507114204 46 244 3.0 12.0 0.00 0.31 0.00 71 1010.4
20260507113704 46 254 2.0 8.0 0.00 0.31 0.00 72 1010.5
20260507112704 46 300 6.0 12.0 0.00 0.31 0.00 71 1010.4
20260507112204 46 304 4.0 12.0 0.00 0.31 0.00 71 1010.4
20260507111704 46 314 2.0 9.0 0.00 0.31 0.00 72 1010.6
20260507111204 46 247 3.0 8.0 0.00 0.31 0.00 73 1010.4
20260507110704 46 269 6.0 13.0 0.00 0.31 0.00 71 1010.4
20260507110203 46 311 2.0 7.0 0.00 0.31 0.00 72 1010.4
20260507105703 45 187 3.0 8.0 0.00 0.31 0.00 72 1010.2
20260507105203 45 329 2.0 9.0 0.00 0.31 0.00 73 1010.1
20260507104703 45 280 3.0 8.0 0.00 0.31 0.00 73 1010.1
20260507103703 45 43 2.0 9.0 0.00 0.31 0.00 74 1009.9
20260507103204 45 325 3.0 9.0 0.00 0.31 0.00 74 1009.8
20260507102704 45 326 3.0 7.0 0.00 0.31 0.00 74 1009.7
20260507102204 45 260 3.0 12.0 0.00 0.31 0.00 77 1009.6
20260507100703 45 338 1.0 3.0 0.00 0.31 0.00 80 1009.3
20260507100204 45 334 2.0 3.0 0.00 0.31 0.00 81 1009.3
20260507095203 46 338 0.0 2.0 0.00 0.31 0.00 82 1009.2
20260507094203 46 333 1.0 9.0 0.00 0.31 0.00 83 1009.1
20260507093704 46 295 3.0 10.0 0.00 0.31 0.00 84 1009.1
20260507093204 46 296 2.0 8.0 0.00 0.31 0.00 84 1009.1
20260507092704 46 289 2.0 6.0 0.00 0.31 0.00 84 1009.2
20260507092204 46 307 2.0 3.0 0.00 0.31 0.00 85 1009.3
20260507091703 46 333 1.0 3.0 0.00 0.31 0.00 85 1009.1
20260507091204 46 330 1.0 6.0 0.00 0.31 0.00 85 1009.0
20260507090704 46 286 1.0 3.0 0.00 0.31 0.00 85 1008.9
20260507090204 47 324 0.0 3.0 0.00 0.31 0.00 86 1009.3
20260507085704 47 326 3.0 12.0 0.00 0.31 0.00 86 1009.2
20260507085203 47 324 2.0 10.0 0.00 0.31 0.00 87 1009.2
20260507084203 47 293 1.0 3.0 0.00 0.31 0.00 87 1009.4
20260507083703 47 293 0.0 3.0 0.00 0.31 0.00 88 1009.3
20260507083203 47 289 0.0 3.0 0.00 0.31 0.00 88 1009.6
20260507082704 47 289 0.0 2.0 0.00 0.31 0.00 88 1009.4
20260507082203 47 289 0.0 2.0 0.00 0.31 0.00 88 1009.5
20260507081703 47 289 0.0 2.0 0.00 0.31 0.00 88 1009.5
20260507081203 47 289 1.0 2.0 0.00 0.31 0.00 88 1009.5
20260507080705 47 289 0.0 0.0 0.00 0.31 0.00 88 1009.5
20260507080203 47 289 0.0 1.0 0.00 0.31 0.00 88 1009.5
20260507075704 47 289 0.0 1.0 0.00 0.31 0.00 88 1009.4
20260507075204 47 289 0.0 0.0 0.00 0.31 0.00 87 1009.4
20260507074703 47 289 0.0 1.0 0.00 0.31 0.00 88 1009.5
20260507074203 47 289 0.0 0.0 0.00 0.31 0.00 87 1009.4
20260507073703 47 289 1.0 1.0 0.00 0.31 0.00 87 1009.3
20260507073203 47 289 0.0 0.0 0.00 0.31 0.00 87 1009.3
20260507072704 47 289 0.0 0.0 0.00 0.31 0.00 87 1009.2
20260507072203 47 289 0.0 0.0 0.00 0.31 0.00 87 1009.0
20260507071703 47 289 0.0 1.0 0.00 0.31 0.00 87 1009.0
20260507071204 47 289 1.0 2.0 0.00 0.31 0.00 87 1008.7
20260507070204 47 289 0.0 1.0 0.00 0.31 0.00 87 1008.5
20260507065704 47 289 0.0 1.0 0.00 0.31 0.00 87 1008.6
20260507065204 47 289 0.0 0.0 0.00 0.31 0.00 87 1008.5
20260507064704 47 289 0.0 2.0 0.00 0.31 0.00 87 1008.4
20260507064204 48 289 1.0 2.0 0.00 0.31 0.00 87 1008.5
20260507063704 48 289 1.0 2.0 0.00 0.31 0.00 87 1008.4
20260507063204 48 289 0.0 2.0 0.00 0.31 0.00 87 1008.5
20260507062704 48 289 0.0 1.0 0.00 0.31 0.00 87 1008.4
20260507061704 48 289 0.0 1.0 0.00 0.31 0.00 87 1008.6
20260507061204 48 289 0.0 1.0 0.00 0.31 0.00 87 1008.6
20260507060704 48 289 1.0 3.0 0.00 0.31 0.00 87 1008.5
20260507060205 48 289 1.0 2.0 0.00 0.31 0.00 87 1008.2
20260507055704 48 289 0.0 2.0 0.00 0.31 0.00 87 1008.4
20260507055204 48 289 2.0 3.0 0.00 0.31 0.00 87 1008.3
20260507054204 48 289 0.0 2.0 0.00 0.31 0.00 87 1008.4
20260507053704 48 289 0.0 3.0 0.00 0.31 0.00 87 1008.7
20260507053204 48 281 0.0 2.0 0.00 0.31 0.00 86 1008.3
20260507052704 48 281 1.0 2.0 0.00 0.31 0.00 86 1008.2
20260507052204 49 281 1.0 6.0 0.00 0.31 0.00 86 1008.4
20260507051704 49 267 1.0 3.0 0.00 0.31 0.00 86 1008.9
20260507051204 49 286 1.0 2.0 0.00 0.31 0.00 86 1008.8
20260507050704 49 286 1.0 2.0 0.00 0.31 0.00 86 1008.6
20260507045204 49 298 2.0 3.0 0.00 0.31 0.00 86 1008.8
20260507044704 49 299 0.0 2.0 0.00 0.31 0.00 86 1008.9
20260507044204 49 298 2.0 5.0 0.00 0.31 0.00 87 1009.0
20260507043704 49 312 2.0 3.0 0.00 0.31 0.00 87 1009.1
20260507043204 49 284 1.0 2.0 0.00 0.31 0.00 87 1009.2
20260507042705 49 284 1.0 6.0 0.00 0.31 0.00 87 1008.9
20260507042204 49 296 3.0 7.0 0.00 0.31 0.00 87 1008.8
20260507041704 49 284 2.0 7.0 0.00 0.31 0.00 87 1008.7
20260507040204 49 309 1.0 3.0 0.00 0.31 0.00 88 1008.5
20260507035704 49 309 2.0 7.0 0.00 0.31 0.31 88 1008.5
20260507035204 49 295 1.0 3.0 0.00 0.31 0.31 88 1008.7
20260507034703 49 295 1.0 3.0 0.00 0.31 0.31 88 1008.3
20260507033704 49 294 2.0 3.0 0.00 0.31 0.31 88 1008.5
20260507033203 49 292 0.0 2.0 0.00 0.31 0.31 88 1008.8
20260507032704 49 292 0.0 2.0 0.00 0.31 0.31 88 1008.8
20260507032204 49 292 0.0 2.0 0.00 0.31 0.31 88 1008.7
20260507031204 49 291 2.0 3.0 0.00 0.31 0.31 88 1008.8
20260507030705 49 327 1.0 5.0 0.00 0.31 0.31 88 1008.9
20260507025704 50 316 3.0 8.0 0.00 0.31 0.31 88 1009.0
20260507025205 50 312 3.0 5.0 0.00 0.31 0.31 88 1009.0
20260507024704 50 303 2.0 7.0 0.00 0.31 0.31 88 1009.0
20260507024204 50 292 1.0 3.0 0.00 0.31 0.31 88 1008.9
20260507023703 50 292 1.0 2.0 0.01 0.31 0.31 88 1008.9
20260507023204 50 292 1.0 2.0 0.01 0.31 0.31 88 1008.9
20260507022705 50 294 3.0 7.0 0.01 0.31 0.31 88 1008.8
20260507022203 50 307 0.0 2.0 0.01 0.31 0.31 88 1008.8
20260507021704 50 306 1.0 7.0 0.01 0.31 0.31 88 1008.8
20260507021204 50 317 1.0 3.0 0.02 0.31 0.31 88 1008.8
20260507020704 50 316 1.0 3.0 0.02 0.31 0.31 88 1008.9
20260507020204 51 316 1.0 2.0 0.03 0.31 0.31 88 1008.8
20260507015704 51 316 0.0 0.0 0.03 0.31 0.31 88 1008.7
20260507015204 51 316 0.0 0.0 0.04 0.31 0.31 88 1008.8
20260507014703 51 316 0.0 0.0 0.04 0.31 0.31 88 1008.8
20260507014204 51 316 0.0 1.0 0.04 0.31 0.31 88 1008.7
20260507013204 51 314 0.0 1.0 0.03 0.30 0.30 87 1008.4
20260507012704 51 314 0.0 2.0 0.03 0.30 0.30 87 1008.3
20260507011704 51 314 1.0 3.0 0.03 0.30 0.30 87 1008.4
20260507010204 51 313 1.0 3.0 0.02 0.28 0.28 87 1008.5
20260507005204 51 301 3.0 5.0 0.01 0.27 0.27 87 1008.3
20260507004704 52 16 2.0 5.0 0.01 0.27 0.27 87 1008.1
20260507004203 52 348 1.0 3.0 0.01 0.27 0.27 87 1008.1
20260507003704 52 26 4.0 10.0 0.01 0.27 0.27 87 1007.7
20260507003204 52 321 3.0 7.0 0.01 0.27 0.27 87 1007.7
20260507002704 52 303 2.0 7.0 0.01 0.27 0.27 87 1007.6
20260507002204 53 35 2.0 5.0 0.02 0.27 0.27 87 1007.3
20260507001704 53 341 2.0 7.0 0.02 0.27 0.27 87 1007.3
20260507001204 53 16 2.0 5.0 0.02 0.27 0.27 87 1007.1
20260507000703 54 342 2.0 3.0 0.01 0.26 0.26 87 1007.0
20260507000205 54 268 1.0 3.0 0.01 0.26 0.26 87 1007.1
20260506235704 54 304 1.0 6.0 0.01 0.26 0.26 87 1007.1
20260506234705 55 266 2.0 12.0 0.01 0.26 0.26 87 1006.6
20260506234204 56 343 3.0 12.0 0.01 0.26 0.26 87 1006.5
20260506233704 57 320 2.0 7.0 0.01 0.26 0.26 87 1006.2
20260506233204 59 299 1.0 9.0 0.01 0.26 0.26 87 1005.9
20260506232703 61 248 2.0 13.0 0.01 0.26 0.26 88 1005.5
20260506232204 61 232 1.0 3.0 0.00 0.25 0.25 88 1005.1
20260506231204 61 232 0.0 0.0 0.00 0.25 0.25 88 1004.7
20260506230704 61 232 0.0 3.0 0.00 0.25 0.25 89 1004.7
20260506230204 61 199 0.0 1.0 0.00 0.25 0.25 89 1004.6
20260506225704 61 199 0.0 2.0 0.00 0.25 0.25 89 1004.6
20260506225204 61 199 0.0 1.0 0.00 0.25 0.25 89 1004.4
20260506224704 61 199 0.0 0.0 0.00 0.25 0.25 88 1004.6
20260506224204 61 199 0.0 1.0 0.00 0.25 0.25 88 1004.6
20260506223704 61 199 1.0 3.0 0.00 0.25 0.25 89 1004.6
20260506223204 61 198 0.0 0.0 0.00 0.25 0.25 89 1004.5
20260506222704 61 198 0.0 1.0 0.00 0.25 0.25 89 1004.5
20260506222204 61 198 0.0 1.0 0.00 0.25 0.25 89 1004.5
20260506221704 61 201 0.0 1.0 0.00 0.25 0.25 89 1004.5
20260506221204 61 201 0.0 2.0 0.00 0.25 0.25 89 1004.5
20260506220704 61 201 0.0 0.0 0.00 0.25 0.25 89 1004.5
20260506220204 61 201 0.0 1.0 0.00 0.25 0.25 88 1004.5
20260506215704 61 201 0.0 0.0 0.00 0.25 0.25 88 1004.5
20260506215204 61 201 0.0 0.0 0.00 0.25 0.25 88 1004.5
20260506214704 61 201 0.0 0.0 0.00 0.25 0.25 88 1004.6
20260506214205 61 201 0.0 1.0 0.00 0.25 0.25 88 1004.5
20260506213204 61 201 0.0 0.0 0.00 0.25 0.25 88 1004.5
20260506212704 61 201 0.0 1.0 0.00 0.25 0.25 88 1004.5
20260506212204 61 201 0.0 0.0 0.00 0.25 0.25 88 1004.5
20260506211704 61 201 0.0 0.0 0.00 0.25 0.25 88 1004.5
20260506211204 61 201 0.0 2.0 0.00 0.25 0.25 88 1004.4
20260506210704 61 201 0.0 2.0 0.00 0.25 0.25 88 1004.4
20260506210203 61 201 0.0 3.0 0.00 0.25 0.25 88 1004.4
20260506205704 61 203 1.0 3.0 0.01 0.25 0.25 88 1004.4
20260506205204 61 137 0.0 3.0 0.01 0.25 0.25 88 1004.4
20260506204704 61 237 0.0 2.0 0.01 0.25 0.25 88 1004.5
20260506203704 61 177 0.0 2.0 0.01 0.25 0.25 88 1004.7
20260506203204 61 139 0.0 1.0 0.02 0.25 0.25 88 1004.6
20260506202704 61 138 0.0 0.0 0.02 0.25 0.25 88 1004.5
20260506202203 61 138 0.0 3.0 0.03 0.25 0.25 88 1004.5
20260506201704 61 174 0.0 3.0 0.03 0.25 0.25 88 1004.5
20260506201204 61 184 0.0 1.0 0.05 0.25 0.25 88 1004.6
20260506200704 61 218 0.0 1.0 0.06 0.25 0.25 88 1004.6
20260506200204 61 218 1.0 3.0 0.07 0.25 0.25 88 1004.8
20260506195704 61 147 0.0 3.0 0.07 0.24 0.24 88 1004.7
20260506195203 61 151 0.0 1.0 0.07 0.24 0.24 88 1004.9
20260506194704 61 151 0.0 2.0 0.08 0.24 0.24 88 1004.9
20260506193704 62 220 2.0 6.0 0.09 0.24 0.24 88 1005.0
20260506193204 62 260 0.0 2.0 0.08 0.23 0.23 88 1005.0
20260506192704 62 264 1.0 3.0 0.09 0.23 0.23 88 1005.0
20260506192204 62 203 0.0 2.0 0.08 0.22 0.22 88 1005.1
20260506191704 62 204 1.0 2.0 0.09 0.22 0.22 88 1005.1
20260506190704 62 234 0.0 2.0 0.06 0.19 0.19 88 1005.1
20260506190204 62 234 1.0 7.0 0.05 0.18 0.18 87 1005.1
20260506185704 62 176 2.0 3.0 0.04 0.17 0.17 87 1005.1
20260506184204 62 185 1.0 3.0 0.04 0.16 0.16 87 1005.1
20260506183704 62 147 0.0 3.0 0.04 0.15 0.15 87 1005.1
20260506183204 62 164 1.0 3.0 0.04 0.15 0.15 87 1005.1
20260506182204 62 158 1.0 2.0 0.03 0.14 0.14 87 1005.2
20260506181704 62 237 1.0 3.0 0.03 0.13 0.13 87 1005.2
20260506181203 62 289 0.0 2.0 0.03 0.13 0.13 87 1005.3
20260506180704 62 289 0.0 3.0 0.03 0.13 0.13 87 1005.4
20260506175704 62 228 0.0 1.0 0.05 0.13 0.13 87 1005.4
20260506174703 62 239 1.0 2.0 0.06 0.12 0.12 87 1005.5
20260506174204 62 239 0.0 3.0 0.07 0.12 0.12 87 1005.5
20260506173704 62 143 1.0 2.0 0.07 0.11 0.11 87 1005.6
20260506172704 63 141 1.0 3.0 0.09 0.11 0.11 87 1005.4